Terug naar catalogus

BEIDOU IGSO-7

ActiefNavigatieMEO
NORAD 43539·PAYLOAD·🇨🇳 China

Gelanceerd Jul 9, 2018 vanaf Xichang Satellite Launch Center

Loading…

Volgende Passages (komende 24 uur)

TLE

VersSource: Space-Track

Epoch: Sep 14, 2026, 12:15 UTC

1 43539U 18057A   26257.51054676 -.00000156  00000-0  00000-0 0  9994
2 43539  55.2132 162.2979 0108095 236.7633 250.7831  1.00276807 30025

Volg BEIDOU IGSO-7 in realtime met AllMySat

Download on the App Store